Regional Weather Roundup
Issued by NWS

Home | Current Version | Previous Version | Text Only | Print | Product List | Glossary Off
Versions: 1 2 3 4 5 6 7 8 9 10 11 12 13 14 15 16 17 18 19 20 21 22 23 24 25 26 27 28 29 30 31 32 33 34 35 36 37 38 39 40 41 42 43 44 45 46 47 48 49 50

000
ASUS45 KPSR 011810
RWRAZ

ARIZONA HOURLY REGIONAL WEATHER ROUNDUP
NATIONAL WEATHER SERVICE PHOENIX AZ
1100 AM MST TUE SEP 01 2015

NOTE: FAIR INDICATES FEW OR NO CLOUDS BELOW 12,000 FEET WITH NO
SIGNIFICANT WEATHER AND/OR OBSTRUCTIONS TO VISIBILITY.

AZZ001>003-036-011900-
NORTHWEST ARIZONA

CITY           SKY/WX    TMP DP  RH WIND       PRES   REMARKS
BULLHEAD CITY  SUNNY     95  59  30 SW7       29.88S
KINGMAN        SUNNY     89  52  28 E13       30.05F
6HR MIN TEMP:  72; 6HR MAX TEMP:  89;

$$

AZZ004>008-015-016-018-011900-
NORTH CENTRAL ARIZONA

CITY           SKY/WX    TMP DP  RH WIND       PRES   REMARKS
GRAND CANYON   SUNNY     71  50  47 S5        30.29S
6HR MIN TEMP:  49; 6HR MAX TEMP:  73;

WILLIAMS       MOSUNNY   75  46  35 CALM      30.33S
PRESCOTT       SUNNY     80  54  40 VRB3      30.18F
6HR MIN TEMP:  58; 6HR MAX TEMP:  80;

FLAGSTAFF      SUNNY     73  48  41 S7        30.31S
6HR MIN TEMP:  49; 6HR MAX TEMP:  74;

PAYSON         MOSUNNY   79  55  44 S5        30.21F
PAGE           SUNNY     83  53  35 NE5       30.11F
6HR MIN TEMP:  67; 6HR MAX TEMP:  83;

$$

AZZ009>014-017-011900-
NORTHEAST ARIZONA

CITY           SKY/WX    TMP DP  RH WIND       PRES   REMARKS
WINSLOW        MOSUNNY   76  57  51 VRB5      30.19F
6HR MIN TEMP:  59; 6HR MAX TEMP:  76;

SAINT JOHNS    MOSUNNY   75  50  41 CALM      30.23F
6HR MIN TEMP:  60; 6HR MAX TEMP:  76;

WINDOW ROCK    PTSUNNY   75  48  38 CALM      30.30F
6HR MIN TEMP:  55; 6HR MAX TEMP:  75;

SHOW LOW       MOSUNNY   70  48  46 CALM      30.29S
$$

AZZ023-011900-
GREATER PHOENIX AREA

CITY           SKY/WX    TMP DP  RH WIND       PRES   REMARKS
PHOENIX        PTSUNNY   90  64  42 E9        29.92F
6HR MIN TEMP:  79; 6HR MAX TEMP:  90;

BUCKEYE        SUNNY     91  61  35 SE13G18   29.92S
GLENDALE       PTSUNNY   91  61  35 E6        29.94S
LUKE AFB       SUNNY     92  61  35 VRB6      29.91F
6HR MIN TEMP:  78; 6HR MAX TEMP:  92; 6HR PCP: TRACE;

DEER VALLEY    SUNNY     89  58  34 VRB5      29.94F
6HR MIN TEMP:  78; 6HR MAX TEMP:  90;

SCOTTSDALE     SUNNY     89  60  37 SE9       29.96F
6HR MIN TEMP:  77; 6HR MAX TEMP:  89;

MESA-GATEWAY   MOSUNNY   88  64  45 SE8       29.97F
CHANDLER       PTSUNNY   90  64  43 E7        29.94F
$$

AZZ027-028-011900-
SOUTHWEST MARICOPA COUNTY AND PINAL COUNTY

CITY           SKY/WX    TMP DP  RH WIND       PRES   REMARKS
CASA GRANDE    PTSUNNY   88  66  48 E8        29.94F
6HR MIN TEMP:  73; 6HR MAX TEMP:  88; 6HR PCP:  0.33;

GILA BEND      PTSUNNY   94  63  35 NE9       29.88F
6HR MIN TEMP:  83; 6HR MAX TEMP:  94;

$$

AZZ503-504-507>509-011900-
SOUTHEAST ARIZONA

CITY           SKY/WX    TMP DP  RH WIND       PRES   REMARKS
TUCSON         MOSUNNY   88  60  38 E5        30.04S
6HR MIN TEMP:  72; 6HR MAX TEMP:  88;

DAVIS-MONTHAN  MOSUNNY   86  63  46 E6        30.02F
6HR MIN TEMP:  72; 6HR MAX TEMP:  86;

RYAN FIELD     SUNNY     90  66  45 CALM      30.03S
SIERRA VISTA   SUNNY     83  56  39 SW6       30.18S
6HR MIN TEMP:  65; 6HR MAX TEMP:  83;

DOUGLAS        MOSUNNY   80  61  52 SW6       30.14S
6HR MIN TEMP:  60; 6HR MAX TEMP:  80;

SAFFORD        CLOUDY    76  64  66 CALM      30.08F
6HR MIN TEMP:  68; 6HR MAX TEMP:  76;

$$

AZZ020-021-025-026-031-011900-
SOUTHWEST ARIZONA

CITY           SKY/WX    TMP DP  RH WIND       PRES   REMARKS
YUMA           PTSUNNY   95  68  41 S14       29.84S
6HR MIN TEMP:  85; 6HR MAX TEMP:  95;

$$

CAZ031-033-041-043-047-048-061-011900-
SOUTHERN CALIFORNIA

CITY           SKY/WX    TMP DP  RH WIND       PRES   REMARKS
DOWNTOWN L.A.  MOSUNNY   78  58  49 VRB6      29.93S
6HR MIN TEMP:  71; 6HR MAX TEMP:  78;

L.A. AIRPORT   PTSUNNY   75  58  55 S5        29.95R
6HR MIN TEMP:  70; 6HR MAX TEMP:  76;

SAN DIEGO      PTSUNNY   74  59  59 SW7       29.96R
6HR MIN TEMP:  70; 6HR MAX TEMP:  74;

BURBANK        SUNNY     76  59  55 CALM      29.94S
6HR MIN TEMP:  69; 6HR MAX TEMP:  76;

ONTARIO        PTSUNNY   75  58  55 S6        29.95S
6HR MIN TEMP:  67; 6HR MAX TEMP:  75;

RIVERSIDE      PTSUNNY   76  58  53 SW5       29.95S
6HR MIN TEMP:  67; 6HR MAX TEMP:  76;

PALM SPRINGS   SUNNY     92  48  22 CALM      29.88F
6HR MIN TEMP:  73; 6HR MAX TEMP:  93;

EL CENTRO NAS  PTSUNNY   94  71  47 SE6       29.83S HX 101
6HR MIN TEMP:  77; 6HR MAX TEMP:  94;

IMPERIAL       MOSUNNY   95  71  45 VRB3      29.80F HX 102
6HR MIN TEMP:  86; 6HR MAX TEMP:  95;

BLYTHE         SUNNY     94  69  44 S8        29.85F
6HR MIN TEMP:  82; 6HR MAX TEMP:  95;

NEEDLES        SUNNY     97  58  27 S12       29.88F
6HR MIN TEMP:  86; 6HR MAX TEMP:  97;

$$

NVZ020-UTZ003-011900-
SOUTHERN NEVADA-UTAH

CITY           SKY/WX    TMP DP  RH WIND       PRES   REMARKS
LAS VEGAS      MOSUNNY   92  49  22 SE10      29.90S
6HR MIN TEMP:  81; 6HR MAX TEMP:  92;

SALT LAKE CITY MOSUNNY   88  46  23 S17G31    29.98F
6HR MIN TEMP:  71; 6HR MAX TEMP:  88;

$$

NMZ009-TXZ055-011900-
NEW MEXICO-WEST TEXAS

CITY           SKY/WX    TMP DP  RH WIND       PRES   REMARKS
ALBUQUERQUE    MOSUNNY   83  47  28 NW8       30.21F
6HR MIN TEMP:  65; 6HR MAX TEMP:  83;

EL PASO        MOSUNNY   91  45  20 N5        30.08S
6HR MIN TEMP:  68; 6HR MAX TEMP:  91;

$$


........................KEY........................
SKY/WX - SKY CONDITION/WEATHER
TMP    - TEMPERATURE IN FAHRENHEIT
DP     - DEW POINT IN FAHRENHEIT
RH     - RELATIVE HUMIDITY IN PERCENT
WIND   - DIRECTION AND SPEED IN MILES PER HOUR (MPH)
VRB    - VARIABLE WIND DIRECTION
PRES   - MEAN SEA LEVEL PRESSURE IN INCHES OF MERCURY
         F - FALLING PRESSURE   R - RISING PRESSURE
         S - STEADY PRESSURE
VSB    - VISIBILITY IN MILES
HX     - HEAT INDEX IN FAHRENHEIT
WCI    - WIND CHILL INDEX IN FAHRENHEIT
TC     - TEMPERATURE IN CELSIUS WHICH IS ALSO KNOWN AS
         TEMPERATURE IN CENTIGRADE
AFB    - AIR FORCE BASE
         LUKE AFB IS LUKE AIR FORCE BASE
         DAVIS-MONTHAN IS DAVIS-MONTHAN AIR FORCE BASE
NAS    - NAVAL AIR STATION
         EL CENTRO NAS IS EL CENTRO NAVAL AIR STATION
N/A    - NOT AVAILABLE



USA.gov is the U.S. government's official web portal to all federal, state and local government web resources and services.